Flag for Hungary Weather past 2 weeks in Debrecen, Hungary

Now
50 °F

Cool.


Feels Like: 50 °F
Forecast: 56 / 75 °F
Wind: 1 mph from Southeast

Location: Debrecen

Current Time: Apr 26, 2015 at 4:21:01 AM

Latest Report: Apr 26, 2015 at 3:00 AM


Visibility: N/A

Pressure: 29.92 "Hg

Humidity: 76%

Dew point: 42 °F

Location of DebrecenLocation

Historic Weather in Debrecen — Graph

°F

Debrecen temperature yesterday

Maximum temperature yesterday: 74 °F (at 3:00 PM)
Minimum temperature yesterday: 45 °F (at 6:00 AM)
Average temperature yesterday: 59 °F

Past Weeks' High & Low Weather Summary

 TemperatureHumidityPressure
High79 °F (Apr 16, 5:00 PM)98% (Apr 17, 11:00 PM)30.31 "Hg (Apr 17, 11:00 PM)
Low33 °F (Apr 19, 3:00 AM)18% (Apr 11, 5:00 PM)29.72 "Hg (Apr 17, 5:00 PM)
Average54 °F50%30.07 "Hg
* Reported Apr 11 3:00 AM — Apr 26 3:00 AM, Debrecen, Weather by CustomWeather, © 2015

Note: Actual official high and low records may vary slightly from our data, if they occured in-between our weather recording intervals... More about our weather records

Advertising

Debrecen weather history for previous 24 hours

 ConditionsComfort  
Time TempWeatherWind HumidityBarometerVisibility
3:00 AM
Sun, Apr 26
50 °FCool.1 mph76%29.92 "HgN/A
2:00 AM50 °FCool.1 mph74%29.93 "HgN/A
1:00 AM53 °FCool.No wind69%29.94 "HgN/A
12:00 AM53 °FCool.1 mph67%29.95 "HgN/A
11:00 PM
Sat, Apr 25
54 °FCool.3 mph64%29.95 "HgN/A
10:00 PM57 °FRefreshingly cool.1 mph56%29.94 "HgN/A
9:00 PM60 °FRefreshingly cool.1 mph50%29.94 "HgN/A
8:00 PM64 °FMild.2 mph43%29.92 "HgN/A
7:00 PM66 °FMild.3 mph43%29.91 "HgN/A
6:00 PM73 °FMild.5 mph32%29.90 "HgN/A
5:00 PM71 °FMild.5 mph35%29.92 "HgN/A
4:00 PM74 °FPassing clouds.5 mph30%29.93 "Hg25 mi
3:00 PM74 °FPassing clouds.5 mph33%29.95 "Hg25 mi
2:00 PM72 °FPassing clouds.5 mph32%29.98 "Hg25 mi
1:00 PM72 °FPassing clouds.3 mph34%30.00 "Hg25 mi
12:00 PM70 °FSunny.3 mph36%30.01 "Hg22 mi
11:00 AM68 °FPassing clouds.3 mph40%30.02 "Hg19 mi
10:00 AM64 °FPassing clouds.3 mph51%30.03 "Hg19 mi
9:00 AM59 °FPassing clouds.2 mph55%30.03 "Hg19 mi
8:00 AM53 °FPassing clouds.3 mph68%30.03 "Hg16 mi
7:00 AM47 °FPassing clouds.1 mph78%30.02 "Hg16 mi
6:00 AM45 °FPassing clouds.1 mph77%30.02 "Hg16 mi
5:00 AM46 °FPassing clouds.1 mph75%30.01 "Hg19 mi
4:00 AM45 °FCool.1 mph78%30.00 "HgN/A
Weather by CustomWeather, © 2015

See weather overviewHow to use our weather pages